RH
74 68 83 95 92 89 97 93 90 74 92 94 90 87 86 75 69 66 67 69 69 71 71 70 72 76 82 88 85 81 77 76 86 97 99 98 100 100 100 100 98 95 94 94
55 49 55 91 91 90 89 91 94 94 93 90 88 73 81 87 86 84 84 72 71 71 68 69 74 78 86 100 97 94 91 93 90 86 98 100 100 100 99 99 100 100 100 99
90 68 50 72 92 90 93 92 92 94 95 93 91 89 91 89 87 91 89 84 77 73 73 73 74 79 86 100 100 97 96 98 95 94 98 100 100 98 98 100 99 100 100 100
93 79 87 96 84 81 89 92 91 91 91 92 92 92 96 94 90 92 88 82 76 74 76 79 75 72 87 100 96 90 86 86 92 98 100 96 96 95 98 100 100 99 100 100
98 96 94 95 88 89 91 91 91 92 84 89 89 94 95 88 92 93 90 86 75 72 79 83 75 67 82 99 92 92 88 84 89 96 99 100 99 100 100 100 100 99 100 100
98 100 92 91 87 87 92 93 91 89 84 86 72 91 88 88 88 73 68 71 75 82 84 86 79 69 75 98 87 96 92 87 88 95 99 99 100 100 100 100 100 100 100 100
92 95 92 90 89 91 97 95 88 90 91 91 91 92 87 73 66 66 70 75 80 85 86 92 85 82 78 88 92 94 92 90 90 95 100 99 100 100 100 100 100 100 100 100
91 96 98 90 74 79 95 87 89 85 87 87 81 71 68 63 67 68 75 78 83 88 91 93 95 99 93 83 86 92 94 94 95 96 100 100 100 100 100 100 100 100 100 100
100 98 95 95 95 94 94 92 86 87 84 87 78 74 70 73 70 73 76 82 85 91 87 89 96 100 99 100 93 92 98 100 99 100 100 100 100 100 100 100 100 100 100 100
95 93 94 92 82 83 85 92 88 85 85 85 87 78 80 78 76 79 82 82 89 91 90 93 99 100 100 99 99 99 100 99 100 100 100 100 100 100 100 100 100 100 100 100
97 90 93 90 93 96 92 79 79 79 79 81 85 82 84 86 83 89 88 89 93 94 96 98 100 100 99 100 99 99 96 100 100 100 100 100 100 100 100 100 99 100 100 100
97 95 96 91 94 95 97 96 94 93 89 87 89 91 92 90 92 95 94 97 97 98 99 100 100 100 98 99 96 94 95 96 100 100 100 100 100 100 100 100 100 99 99 99
97 97 96 93 94 95 97 96 96 96 95 98 95 98 98 98 98 95 97 98 100 100 100 100 99 96 92 96 100 96 88 96 99 100 100 100 100 100 100 100 100 99 99 99
98 98 92 95 97 95 95 91 94 88 90 95 97 93 97 100 94 94 98 98 96 94 98 100 96 93 96 97 100 100 99 100 100 100 99 99 99 100 100 100 99 100 99 99
94 97 95 96 91 89 87 91 94 95 94 94 92 96 97 99 98 99 97 98 94 92 92 94 99 93 94 100 98 99 99 98 99 98 98 98 98 98 98 98 99 99 100 99
96 93 90 95 95 92 94 93 97 95 95 96 97 97 98 97 96 94 93 96 98 99 100 100 98 99 95 98 100 97 100 99 100 98 100 99 98 98 99 99 99 99 99 100
98 90 88 87 92 96 97 95 97 97 98 95 98 100 99 96 91 93 94 95 96 96 98 99 100 97 97 96 98 99 98 98 98 97 97 98 98 98 98 98 98 99 99 99
94 94 94 94 95 92 90 91 90 94 97 98 98 98 97 97 98 98 99 95 90 86 94 95 97 96 95 97 96 97 97 97 97 97 97 97 97 97 97 97 98 98 98 98
82 84 80 82 94 94 91 93 96 98 98 98 98 96 96 98 99 99 96 96 95 97 94 94 99 96 95 96 96 96 97 97 97 97 97 98 97 96 96 96 97 98 97 97
86 86 90 86 91 94 93 95 97 98 97 100 97 95 94 96 99 99 97 98 96 98 98 97 95 95 98 95 97 96 96 96 96 97 96 96 96 96 97 97 96 96 97 96
94 96 96 99 96 89 98 97 98 99 98 98 97 98 99 98 95 97 95 92 90 95 98 93 93 89 97 95 96 96 96 96 96 96 97 98 98 96 96 96 96 96 96 96
98 98 97 98 98 92 92 96 95 96 96 96 96 99 100 96 97 96 89 95 97 99 95 95 94 92 98 96 96 96 96 96 96 96 97 96 96 96 96 96 96 96 96 96
96 96 98 98 98 96 91 93 91 94 97 93 92 94 100 99 99 100 90 90 94 97 95 94 98 98 99 96 96 96 96 96 96 96 96 96 96 96 96 96 96 96 96 96
97 96 97 97 88 91 96 94 91 86 93 88 81 78 92 100 92 94 100 100 100 97 98 98 98 100 98 96 96 96 95 94 96 96 96 96 95 96 96 96 96 96 96 96
97 97 97 92 92 98 97 96 95 82 91 88 81 75 73 82 100 98 95 97 100 98 95 97 99 98 95 96 96 96 96 96 95 95 96 96 95 96 96 96 96 96 96 96
96 99 98 97 98 99 99 98 98 93 91 94 89 76 74 70 85 96 91 95 95 98 95 96 96 96 96 96 95 95 94 95 96 95 96 96 95 96 96 95 96 96 96 96
87 92 92 88 86 94 98 91 96 100 84 86 96 76 76 77 71 95 95 81 93 94 96 96 95 96 96 96 96 96 96 96 96 96 96 96 96 96 96 96 96 96 96 96
Wind_Speed
11 13 7 8 10 8 9 11 11 9 7 6 9 10 10 10 12 13 13 14 13 13 11 19 21 22 22 23 20 15 10 10 7 8 9 13 16 17 18 20 21 25 28 29
6 8 4 3 14 15 6 6 6 11 8 11 9 10 13 14 14 14 14 14 14 13 16 20 22 23 23 21 18 11 9 9 8 7 8 11 13 14 14 18 19 23 27 30
5 5 6 4 10 2 5 11 5 6 5 10 8 10 11 12 14 15 16 17 16 15 17 22 24 24 23 22 14 11 11 9 7 6 7 10 10 11 14 18 20 25 30 31
4 5 2 5 9 16 17 11 12 7 10 10 11 8 3 11 14 14 17 16 14 19 23 26 28 29 27 24 17 16 15 13 8 7 7 8 11 15 18 21 24 28 30 32
2 2 4 3 7 6 6 7 13 11 13 12 18 4 5 17 15 13 14 18 21 23 23 26 25 28 25 20 17 17 18 19 15 10 7 9 11 15 16 20 22 25 28 30
1 3 3 5 12 6 6 1 11 12 14 15 15 5 5 16 15 15 20 19 22 26 25 23 26 26 20 15 15 19 19 17 16 12 9 8 11 13 15 16 18 20 23 27
2 2 2 10 13 4 2 3 12 10 10 10 6 5 11 13 14 18 19 21 22 23 21 22 25 25 19 15 16 16 15 15 14 11 9 6 7 10 12 14 16 18 20 21
2 3 1 16 4 5 4 5 9 10 10 12 11 11 12 13 14 19 20 23 24 21 23 22 20 21 19 17 18 16 14 13 12 10 7 5 5 8 11 15 18 20 23 22
2 2 4 4 7 6 7 6 9 10 10 12 13 14 16 14 14 18 21 21 22 21 21 21 21 19 18 21 19 17 15 13 10 9 5 4 5 9 13 16 20 20 21 22
1 3 2 5 6 9 8 7 8 10 10 11 12 13 13 13 14 17 21 21 22 20 20 21 25 20 16 20 19 16 15 13 11 8 5 4 6 10 15 18 17 17 19 21
1 3 3 3 4 6 8 8 10 11 9 9 9 11 12 11 15 16 19 21 20 19 19 21 24 21 19 19 17 15 14 13 9 7 5 5 7 11 15 18 21 21 21 26
2 3 3 6 5 7 6 7 8 8 10 14 12 10 16 13 16 16 19 21 19 19 20 23 24 21 20 19 16 14 12 12 8 7 5 8 8 6 9 15 16 19 22 26
2 3 4 6 6 6 5 7 13 11 13 8 15 14 16 16 16 21 20 20 20 20 20 22 23 22 21 20 17 13 12 10 8 6 7 10 12 15 14 11 12 18 24 26
3 2 3 3 3 12 9 10 11 11 13 15 17 20 19 19 21 22 20 23 23 23 24 23 23 23 21 19 17 13 10 6 6 6 8 11 13 14 17 18 18 20 24 30
7 5 4 7 7 8 13 11 7 6 13 15 18 18 19 16 16 19 20 20 19 19 23 26 25 26 23 19 16 11 8 7 6 7 8 11 14 16 17 18 18 21 27 27
7 4 5 4 6 6 8 8 5 7 12 14 14 17 20 20 20 21 21 21 20 19 23 24 24 24 20 17 14 10 8 3 6 11 10 14 17 16 16 18 20 19 21 24
4 5 6 6 6 5 5 10 10 10 13 13 16 18 18 18 16 18 20 19 18 18 20 23 24 23 21 19 13 6 2 4 5 13 14 15 17 17 17 18 17 19 21 25
8 8 7 9 5 6 9 11 13 14 13 17 17 17 16 15 14 17 19 19 20 22 22 23 23 21 20 20 15 9 2 1 6 10 11 13 15 16 18 19 20 21 22 21
10 10 11 11 9 10 11 12 14 15 16 16 16 16 16 16 17 18 20 18 17 18 25 25 20 16 18 17 13 9 5 2 7 9 11 12 14 16 18 20 21 22 22 21
9 10 11 11 12 11 11 13 15 15 16 16 16 16 17 18 20 20 19 16 16 19 23 21 19 18 23 11 11 8 6 5 8 11 11 13 15 16 17 19 21 18 21 20
9 10 10 10 11 12 11 13 15 14 15 15 14 15 16 18 19 19 17 15 24 24 22 20 15 18 17 9 8 7 6 5 8 10 13 14 15 16 17 17 18 18 20 20
10 11 11 11 12 12 13 13 14 12 14 15 15 15 16 17 19 19 15 14 25 26 19 18 18 21 14 9 8 6 6 6 8 10 11 13 14 15 15 16 16 18 18 18
11 10 9 9 10 10 11 13 15 12 14 16 17 17 15 16 16 16 18 26 23 25 21 17 21 18 11 9 6 6 8 8 7 8 9 10 11 12 13 13 14 16 17 17
10 9 9 8 8 9 12 14 16 14 13 15 17 16 16 17 19 16 22 20 21 21 19 18 19 15 12 8 5 6 7 8 7 7 8 8 9 10 12 12 13 14 16 16
9 9 7 8 8 10 11 12 14 16 15 17 18 19 18 14 12 19 22 21 20 20 19 17 17 14 13 9 8 7 6 4 5 6 6 9 9 8 9 11 12 14 14 14
12 12 4 6 8 11 11 11 14 15 14 15 15 19 20 18 15 16 20 19 20 19 19 19 17 14 9 8 7 6 4 5 4 3 5 9 9 9 10 11 12 12 13 12
11 9 7 10 11 13 10 14 14 15 19 16 11 18 19 19 17 15 17 21 20 20 19 19 17 15 10 8 5 5 4 5 6 8 9 9 10 10 9 10 13 11 10 10
Wind_Direction
312 317 297 294 304 280 314 247 206 193 145 59 32 21 23 14 21 24 19 15 12 8 9 3 2 360 351 348 352 358 3 358 335 311 272 246 245 244 243 234 235 226 212 208
278 240 319 336 28 345 32 347 342 340 87 1 22 23 26 12 13 12 4 2 1 357 4 358 352 353 346 340 346 3 11 12 356 314 291 266 249 241 244 244 225 223 212 208
260 355 312 217 12 357 99 31 336 64 346 348 359 12 29 16 12 3 352 353 351 349 353 349 337 345 339 344 8 26 30 28 10 341 303 271 253 247 249 237 228 217 209 208
294 335 250 74 29 75 84 40 23 27 14 356 319 307 134 33 13 356 347 341 345 345 343 338 332 343 345 350 3 11 20 19 4 339 308 283 266 253 245 230 219 208 206 208
202 257 118 42 18 356 8 51 9 2 1 350 337 337 137 16 5 352 334 336 335 338 334 328 330 338 347 334 351 1 4 5 357 346 319 298 269 245 229 213 204 204 204 200
13 190 349 35 335 320 318 144 359 359 360 357 358 34 350 347 343 339 333 339 339 332 333 332 332 333 334 330 347 359 356 353 348 340 325 304 278 252 233 221 209 204 200 202
279 78 106 355 325 308 190 346 343 350 357 350 7 334 317 328 333 334 337 340 341 340 333 329 330 333 329 344 350 352 346 341 343 339 329 304 266 246 230 212 199 192 190 189
338 65 229 352 30 58 338 335 354 347 351 345 342 343 341 341 340 342 339 344 346 344 336 325 335 342 343 357 349 347 339 336 332 331 327 310 251 228 211 197 179 164 158 153
58 96 38 11 55 11 353 347 351 343 346 345 342 347 345 340 340 340 343 343 346 343 328 333 341 350 345 347 350 342 335 328 319 309 313 300 234 201 184 179 163 151 147 142
109 360 331 49 31 14 1 355 345 350 345 345 339 338 336 335 335 338 341 344 341 341 336 334 340 342 340 339 341 336 325 315 304 282 282 249 224 209 192 174 163 158 153 148
318 320 31 298 33 345 343 351 354 348 348 344 334 332 331 326 330 332 338 338 339 338 338 330 336 340 339 337 333 329 322 307 294 269 221 207 206 206 201 195 187 175 172 163
216 236 205 277 303 335 343 336 335 340 339 340 339 326 327 326 329 331 340 338 339 340 338 336 344 342 346 343 337 325 315 307 290 255 204 178 178 165 210 212 195 188 178 167
266 255 221 265 295 327 318 320 326 340 337 324 331 333 331 325 329 341 342 342 341 338 341 348 347 345 349 346 339 323 312 300 265 254 198 173 156 142 123 133 171 179 170 160
283 331 355 348 288 318 320 325 331 332 335 333 330 339 339 327 337 343 337 345 351 356 356 357 358 350 345 340 335 327 308 283 261 248 211 183 165 153 144 142 137 135 149 147
333 328 240 286 325 330 348 343 333 323 328 332 343 336 337 325 327 330 342 350 354 359 3 2 352 356 346 335 329 324 302 280 239 212 203 188 174 159 151 145 140 137 140 142
312 314 336 341 313 330 336 334 330 327 329 326 330 333 335 335 336 343 350 358 354 345 358 359 354 356 356 337 320 320 310 251 182 151 144 145 144 140 140 138 139 141 137 138
353 341 342 339 338 330 313 321 323 322 324 331 331 331 335 338 337 342 348 356 0 359 4 2 357 358 9 1 340 348 342 117 149 135 129 124 119 118 116 115 115 116 122 144
331 326 339 324 347 337 330 336 340 337 335 333 335 335 337 338 335 335 343 352 357 2 7 0 358 358 6 9 355 359 23 182 151 143 143 137 130 136 139 137 138 131 127 129
345 344 341 336 355 340 337 342 339 335 337 339 340 340 338 339 341 341 348 347 350 344 349 353 347 356 359 1 0 6 12 113 131 145 147 135 137 142 137 133 129 124 128 134
348 348 348 350 349 348 339 340 340 339 341 343 342 344 343 344 346 345 346 336 337 336 338 342 337 341 352 354 359 16 33 83 125 133 136 137 142 142 145 141 140 138 138 144
343 344 346 346 345 352 349 348 344 338 340 349 347 342 337 338 347 345 344 341 338 343 338 337 339 336 4 12 9 26 45 78 106 112 121 122 124 129 129 136 144 148 145 150
339 340 340 345 347 350 357 356 357 351 350 353 351 349 344 342 344 343 344 339 338 340 348 348 344 335 347 1 15 31 49 83 102 111 115 122 126 132 137 142 142 149 148 154
333 332 331 339 343 340 349 3 4 2 359 359 357 353 344 339 340 337 339 343 342 342 345 347 348 8 5 10 19 52 65 74 91 106 115 120 127 134 142 148 146 149 152 156
329 332 331 337 347 357 355 357 1 2 1 3 7 5 357 345 345 355 346 344 347 348 348 350 352 359 2 16 60 78 66 61 75 114 121 118 124 138 143 148 152 155 155 158
328 327 328 343 349 348 352 351 351 358 357 358 4 5 5 3 347 345 353 357 353 355 3 3 6 7 21 45 52 56 54 52 68 87 131 149 137 136 143 150 153 153 154 154
351 338 353 358 352 351 350 352 349 349 346 342 353 0 359 360 358 354 1 1 5 4 12 11 10 13 17 31 35 33 28 47 122 123 130 132 133 143 140 140 143 148 146 146
2 1 18 2 360 357 351 354 347 338 341 334 341 356 356 357 358 356 2 8 7 10 12 13 15 18 21 32 45 46 60 89 106 119 120 122 129 129 134 142 136 137 142 150